Tracking 29892 objects as of 21-Nov-2024
HD Live streaming from Space Station
objects crossing your sky now

FENGYUN 1C DEB

Track FENGYUN 1C DEB now!
10-day predictions


NORAD ID: 35139
Int'l Code: 1999-025DLT
Perigee: 782.0 km
Apogee: 882.6 km
Inclination: 98.6 °
Period: 101.4 minutes
Semi major axis: 7203 km
RCS: 0.0145 m2 (small)
Launch date: May 10, 1999
Source: People's Republic of China (PRC)
Launch site: Taiyaun Space Center, China (TSC)

Note: This is SATELLITE DEBRIS
Your satellite tracking list
Your tracking list is empty




NASA's NSSDC Master Catalog

Two Line Element Set (TLE):
1 35139U 99025DLT 24319.30688837  .00001761  00000-0  82684-3 0  9994
2 35139  98.5899 329.7140 0069844 357.1950   2.8826 14.20056392585677
Source of the keplerian elements: AFSPC